,,,PA_Meas_PMT16A,,PR_Meas_QMR101_102,,RH_Meas_QMH101,,SR_Meas_QMS101,,TA_Meas_QMH101,,GenWind,,GenWind,
date,time,status,PA,status,PR,status,RH,status,SR,status,TA,status,DirAvg,status,SpdAvg,
2010-03-16, 00:00:05,VALID,1001.6,VALID,0,VALID,93.2111,VALID,0,VALID,23.6232,VALID,12,VALID,0,
2010-03-16, 00:01:05,VALID,1001.54,VALID,0,VALID,93.15,VALID,0,VALID,23.5823,VALID,12,VALID,0,
2010-03-16, 00:02:05,VALID,1001.53,VALID,0,VALID,93.2034,VALID,0,VALID,23.6036,VALID,12,VALID,0,
2010-03-16, 00:03:05,VALID,1001.54,VALID,0,VALID,93.2568,VALID,0,VALID,23.6019,VALID,12,VALID,0,
2010-03-16, 00:04:05,VALID,1001.5,VALID,0,VALID,93.2797,VALID,0,VALID,23.6214,VALID,12,VALID,0,
2010-03-16, 00:05:05,VALID,1001.51,VALID,0,VALID,93.295,VALID,0,VALID,23.6409,VALID,12,VALID,0,
2010-03-16, 00:06:05,VALID,1001.48,VALID,0,VALID,93.3026,VALID,0,VALID,23.6604,VALID,12,VALID,0,
2010-03-16, 00:07:05,VALID,1001.48,VALID,0,VALID,93.3103,VALID,0,VALID,23.6817,VALID,12,VALID,0,
2010-03-16, 00:08:05,VALID,1001.47,VALID,0,VALID,93.2797,VALID,0,VALID,23.6817,VALID,12,VALID,0,
2010-03-16, 00:09:05,VALID,1001.47,VALID,0,VALID,93.2492,VALID,0,VALID,23.6817,VALID,29,VALID,0,
2010-03-16, 00:10:05,VALID,1001.45,VALID,0,VALID,93.1271,VALID,0,VALID,23.6427,VALID,73,VALID,0,
2010-03-16, 00:11:05,VALID,1001.48,VALID,0,VALID,93.234,VALID,0,VALID,23.6036,VALID,73,VALID,0,
2010-03-16, 00:12:05,VALID,1001.43,VALID,0,VALID,93.3179,VALID,0,VALID,23.6427,VALID,73,VALID,0,
2010-03-16, 00:13:05,VALID,1001.45,VALID,0,VALID,93.0966,VALID,0,VALID,23.5841,VALID,96,VALID,0,
2010-03-16, 00:14:05,VALID,1001.44,VALID,0,VALID,93.0508,VALID,0,VALID,23.5256,VALID,98,VALID,1.00742,
2010-03-16, 00:15:05,VALID,1001.45,VALID,0,VALID,93.1882,VALID,0,VALID,23.4653,VALID,98,VALID,0.811719,
2010-03-16, 00:16:05,VALID,1001.46,VALID,0,VALID,93.1958,VALID,0,VALID,23.4653,VALID,98,VALID,0.692187,
2010-03-16, 00:17:05,VALID,1001.45,VALID,0,VALID,93.234,VALID,0,VALID,23.4671,VALID,98,VALID,0.715234,
2010-03-16, 00:18:05,VALID,1001.47,VALID,0,VALID,93.15,VALID,0,VALID,23.4067,VALID,97,VALID,0.782422,
2010-03-16, 00:19:05,VALID,1001.47,VALID,0,VALID,93.1882,VALID,0,VALID,23.3677,VALID,85,VALID,0.852734,
2010-03-16, 00:20:05,VALID,1001.46,VALID,0,VALID,93.2187,VALID,0,VALID,23.3482,VALID,66,VALID,1.01797,
2010-03-16, 00:21:05,VALID,1001.47,VALID,0,VALID,93.15,VALID,0,VALID,23.3305,VALID,60,VALID,1.01875,
2010-03-16, 00:22:05,VALID,1001.46,VALID,0,VALID,93.15,VALID,0,VALID,23.2507,VALID,59,VALID,0.681641,
2010-03-16, 00:23:05,VALID,1001.45,VALID,0,VALID,93.1729,VALID,0,VALID,23.2312,VALID,59,VALID,0.445313,
2010-03-16, 00:24:05,VALID,1001.41,VALID,0,VALID,93.1958,VALID,0,VALID,23.1921,VALID,59,VALID,0.442187,
2010-03-16, 00:25:05,VALID,1001.42,VALID,0,VALID,93.2874,VALID,0,VALID,23.1921,VALID,59,VALID,0.387891,
2010-03-16, 00:26:05,VALID,1001.41,VALID,0,VALID,93.3179,VALID,0,VALID,23.1939,VALID,59,VALID,0.480469,
2010-03-16, 00:27:05,VALID,1001.38,VALID,0,VALID,93.2721,VALID,0,VALID,23.1531,VALID,59,VALID,0.227734,
2010-03-16, 00:28:05,VALID,1001.35,VALID,0,VALID,93.1729,VALID,0,VALID,23.1159,VALID,59,VALID,0,
2010-03-16, 00:29:05,VALID,1001.34,VALID,0,VALID,93.2568,VALID,0,VALID,23.0964,VALID,59,VALID,0,
2010-03-16, 00:30:05,VALID,1001.34,VALID,0,VALID,93.3331,VALID,0,VALID,23.0946,VALID,59,VALID,0,
2010-03-16, 00:31:05,VALID,1001.34,VALID,0,VALID,93.4247,VALID,0,VALID,23.1141,VALID,59,VALID,0,
2010-03-16, 00:32:05,VALID,1001.31,VALID,0,VALID,93.4705,VALID,0,VALID,23.1531,VALID,59,VALID,0,
2010-03-16, 00:33:05,VALID,1001.31,VALID,0,VALID,93.5239,VALID,0,VALID,23.1921,VALID,60,VALID,0,
2010-03-16, 00:34:05,VALID,1001.3,VALID,0,VALID,93.4628,VALID,0,VALID,23.2329,VALID,60,VALID,0.0265625,
2010-03-16, 00:35:05,VALID,1001.32,VALID,0,VALID,93.4247,VALID,0,VALID,23.1939,VALID,66,VALID,0.555078,
2010-03-16, 00:36:05,VALID,1001.29,VALID,0,VALID,93.3866,VALID,0,VALID,23.1744,VALID,103,VALID,0.680469,
2010-03-16, 00:37:05,VALID,1001.32,VALID,0,VALID,93.4018,VALID,0,VALID,23.1549,VALID,103,VALID,0.733203,
2010-03-16, 00:38:05,VALID,1001.3,VALID,0,VALID,93.4171,VALID,0,VALID,23.1354,VALID,103,VALID,0.491797,
2010-03-16, 00:39:05,VALID,1001.28,VALID,0,VALID,93.4171,VALID,0.112286,VALID,23.1336,VALID,103,VALID,0.461719,
2010-03-16, 00:40:05,VALID,1001.3,VALID,0,VALID,93.4094,VALID,0,VALID,23.0946,VALID,103,VALID,0.278906,
2010-03-16, 00:41:05,VALID,1001.3,VALID,0,VALID,93.3713,VALID,0,VALID,23.1159,VALID,103,VALID,0.154297,
2010-03-16, 00:42:05,VALID,1001.31,VALID,0,VALID,93.3484,VALID,0,VALID,23.0573,VALID,103,VALID,0,
2010-03-16, 00:43:05,VALID,1001.31,VALID,0,VALID,93.3408,VALID,0,VALID,23.0183,VALID,103,VALID,0,
2010-03-16, 00:44:05,VALID,1001.3,VALID,0,VALID,93.5163,VALID,0,VALID,23.0166,VALID,103,VALID,0,
2010-03-16, 00:45:05,VALID,1001.28,VALID,0,VALID,93.5239,VALID,0,VALID,23.0769,VALID,92,VALID,0,
2010-03-16, 00:46:05,VALID,1001.27,VALID,0,VALID,93.5239,VALID,0,VALID,23.0964,VALID,92,VALID,0,
2010-03-16, 00:47:05,VALID,1001.26,VALID,0,VALID,93.3866,VALID,0,VALID,23.0573,VALID,92,VALID,0,
2010-03-16, 00:48:05,VALID,1001.23,VALID,0,VALID,93.2645,VALID,0,VALID,22.919,VALID,92,VALID,0,
2010-03-16, 00:49:05,VALID,1001.23,VALID,0,VALID,93.3179,VALID,0,VALID,22.8818,VALID,92,VALID,0,
2010-03-16, 00:50:05,VALID,1001.21,VALID,0,VALID,93.5315,VALID,0,VALID,22.9403,VALID,92,VALID,0,
2010-03-16, 00:51:05,VALID,1001.21,VALID,0,VALID,93.646,VALID,0,VALID,22.9988,VALID,92,VALID,0,
2010-03-16, 00:52:05,VALID,1001.18,VALID,0,VALID,93.6231,VALID,0,VALID,23.0378,VALID,57,VALID,0,
2010-03-16, 00:53:05,VALID,1001.13,VALID,0,VALID,93.6002,VALID,0,VALID,23.0378,VALID,50,VALID,0,
2010-03-16, 00:54:05,VALID,1001.09,VALID,0,VALID,93.6231,VALID,0,VALID,23.0361,VALID,50,VALID,0,
2010-03-16, 00:55:05,VALID,1001.06,VALID,0,VALID,93.5697,VALID,0,VALID,23.0378,VALID,50,VALID,0,
2010-03-16, 00:56:05,VALID,1001.05,VALID,0,VALID,93.5391,VALID,0,VALID,22.9971,VALID,50,VALID,0,
2010-03-16, 00:57:05,VALID,1001.02,VALID,0,VALID,93.5926,VALID,0,VALID,22.9971,VALID,50,VALID,0,
2010-03-16, 00:58:05,VALID,1001.01,VALID,0,VALID,93.5926,VALID,0,VALID,23.0183,VALID,50,VALID,0.526172,
2010-03-16, 00:59:05,VALID,1000.98,VALID,0,VALID,93.5926,VALID,0,VALID,23.0166,VALID,50,VALID,0.767578,
2010-03-16, 01:00:05,VALID,1000.95,VALID,0,VALID,93.5926,VALID,0,VALID,23.0378,VALID,50,VALID,0.512109,
2010-03-16, 01:01:05,VALID,1000.92,VALID,0,VALID,93.5697,VALID,0,VALID,23.0183,VALID,50,VALID,0.3125,
2010-03-16, 01:02:05,VALID,1000.92,VALID,0,VALID,93.5697,VALID,0,VALID,23.0183,VALID,50,VALID,0.237109,
2010-03-16, 01:03:05,VALID,1000.91,VALID,0,VALID,93.5163,VALID,0,VALID,22.9598,VALID,50,VALID,0.110937,
2010-03-16, 01:04:05,VALID,1000.9,VALID,0,VALID,93.5239,VALID,0,VALID,22.9403,VALID,50,VALID,0.399609,
2010-03-16, 01:05:05,VALID,1000.87,VALID,0,VALID,93.5849,VALID,0,VALID,22.9403,VALID,47,VALID,0.367578,
2010-03-16, 01:06:05,VALID,1000.85,VALID,0,VALID,93.5773,VALID,0,VALID,22.9598,VALID,47,VALID,0.29375,
2010-03-16, 01:07:05,VALID,1000.84,VALID,0,VALID,93.5926,VALID,0,VALID,22.9403,VALID,47,VALID,0.355078,
2010-03-16, 01:08:05,VALID,1000.83,VALID,0,VALID,93.5697,VALID,0,VALID,22.9403,VALID,47,VALID,0.406641,
2010-03-16, 01:09:05,VALID,1000.83,VALID,0,VALID,93.6002,VALID,0,VALID,22.9208,VALID,78,VALID,0.521484,
2010-03-16, 01:10:05,VALID,1000.83,VALID,0,VALID,93.6154,VALID,0,VALID,22.9403,VALID,78,VALID,0.708203,
2010-03-16, 01:11:05,VALID,1000.83,VALID,0,VALID,93.6765,VALID,0,VALID,22.9988,VALID,88,VALID,0.794141,
2010-03-16, 01:12:05,VALID,1000.8,VALID,0,VALID,93.6994,VALID,0,VALID,22.9988,VALID,97,VALID,0.816797,
2010-03-16, 01:13:05,VALID,1000.81,VALID,0,VALID,93.6536,VALID,0,VALID,22.9988,VALID,97,VALID,0.711719,
2010-03-16, 01:14:05,VALID,1000.78,VALID,0,VALID,93.6612,VALID,0,VALID,22.9988,VALID,97,VALID,0.671875,
2010-03-16, 01:15:05,VALID,1000.77,VALID,0,VALID,93.6612,VALID,0,VALID,22.9988,VALID,97,VALID,0.561719,
2010-03-16, 01:16:05,VALID,1000.75,VALID,0,VALID,93.6154,VALID,0,VALID,22.9793,VALID,97,VALID,0.480859,
2010-03-16, 01:17:05,VALID,1000.72,VALID,0,VALID,93.5849,VALID,0,VALID,22.9403,VALID,96,VALID,0,
2010-03-16, 01:18:05,VALID,1000.7,VALID,0,VALID,93.5926,VALID,0,VALID,22.9208,VALID,353,VALID,0.545703,
2010-03-16, 01:19:05,VALID,1000.71,VALID,0,VALID,93.5773,VALID,0,VALID,22.9208,VALID,318,VALID,0.848047,
2010-03-16, 01:20:05,VALID,1000.72,VALID,0,VALID,93.5849,VALID,0,VALID,22.9013,VALID,318,VALID,0.588672,
2010-03-16, 01:21:05,VALID,1000.7,VALID,0,VALID,93.6154,VALID,0,VALID,22.9013,VALID,318,VALID,0.217969,
2010-03-16, 01:22:05,VALID,1000.68,VALID,0,VALID,93.646,VALID,0,VALID,22.9403,VALID,318,VALID,0,
2010-03-16, 01:23:05,VALID,1000.65,VALID,0,VALID,93.6612,VALID,0,VALID,22.9811,VALID,318,VALID,0,
2010-03-16, 01:24:05,VALID,1000.65,VALID,0,VALID,93.6688,VALID,0,VALID,22.9598,VALID,318,VALID,0,
2010-03-16, 01:25:05,VALID,1000.62,VALID,0,VALID,93.6383,VALID,0,VALID,22.9598,VALID,316,VALID,0,
2010-03-16, 01:26:05,VALID,1000.6,VALID,0,VALID,93.7299,VALID,0,VALID,22.9988,VALID,143,VALID,0,
2010-03-16, 01:27:05,VALID,1000.59,VALID,0,VALID,93.7604,VALID,0,VALID,23.0378,VALID,143,VALID,0,
2010-03-16, 01:28:05,VALID,1000.61,VALID,0,VALID,93.7375,VALID,0,VALID,23.0573,VALID,143,VALID,0,
2010-03-16, 01:29:05,VALID,1000.58,VALID,0,VALID,93.7299,VALID,0,VALID,23.0573,VALID,143,VALID,0,
2010-03-16, 01:30:05,VALID,1000.58,VALID,0,VALID,93.6994,VALID,0,VALID,23.0378,VALID,143,VALID,0,
2010-03-16, 01:31:05,VALID,1000.61,VALID,0,VALID,93.6841,VALID,0,VALID,23.0378,VALID,143,VALID,0,
2010-03-16, 01:32:05,VALID,1000.58,VALID,0,VALID,93.6765,VALID,0,VALID,23.0573,VALID,143,VALID,0,
2010-03-16, 01:33:05,VALID,1000.58,VALID,0,VALID,93.646,VALID,0,VALID,23.0573,VALID,143,VALID,0,
2010-03-16, 01:34:05,VALID,1000.57,VALID,0,VALID,93.6383,VALID,0,VALID,23.0573,VALID,143,VALID,0,
2010-03-16, 01:35:05,VALID,1000.54,VALID,0,VALID,93.6612,VALID,0,VALID,23.0573,VALID,143,VALID,0,
2010-03-16, 01:36:05,VALID,1000.51,VALID,0,VALID,93.6688,VALID,0,VALID,23.0769,VALID,143,VALID,0,
2010-03-16, 01:37:05,VALID,1000.51,VALID,0,VALID,93.6612,VALID,0,VALID,23.0964,VALID,143,VALID,0,
2010-03-16, 01:38:05,VALID,1000.48,VALID,0,VALID,93.646,VALID,0,VALID,23.0573,VALID,143,VALID,0,
2010-03-16, 01:39:05,VALID,1000.47,VALID,0,VALID,93.6307,VALID,0,VALID,23.0573,VALID,143,VALID,0,
2010-03-16, 01:40:05,VALID,1000.49,VALID,0,VALID,93.6154,VALID,0,VALID,23.0183,VALID,143,VALID,0,
2010-03-16, 01:41:05,VALID,1000.45,VALID,0,VALID,93.6002,VALID,0,VALID,23.0183,VALID,143,VALID,0,
2010-03-16, 01:42:05,VALID,1000.45,VALID,0,VALID,93.6307,VALID,0,VALID,23.0378,VALID,143,VALID,0,
2010-03-16, 01:43:05,VALID,1000.44,VALID,0,VALID,93.646,VALID,0,VALID,23.0573,VALID,143,VALID,0,
2010-03-16, 01:44:05,VALID,1000.43,VALID,0,VALID,93.6383,VALID,0,VALID,23.0573,VALID,143,VALID,0,
2010-03-16, 01:45:05,VALID,1000.41,VALID,0,VALID,93.6383,VALID,0,VALID,23.0573,VALID,143,VALID,0,
2010-03-16, 01:46:05,VALID,1000.38,VALID,0,VALID,93.646,VALID,0,VALID,23.0573,VALID,143,VALID,0,
2010-03-16, 01:47:05,VALID,1000.39,VALID,0,VALID,93.6765,VALID,0,VALID,23.0573,VALID,143,VALID,0,
2010-03-16, 01:48:05,VALID,1000.39,VALID,0,VALID,93.646,VALID,0,VALID,23.0573,VALID,143,VALID,0,
2010-03-16, 01:49:05,VALID,1000.34,VALID,0,VALID,93.6307,VALID,0,VALID,23.0378,VALID,143,VALID,0,
2010-03-16, 01:50:04,VALID,1000.36,VALID,0,VALID,93.6307,VALID,0,VALID,23.0378,VALID,143,VALID,0,
2010-03-16, 01:51:04,VALID,1000.33,VALID,0,VALID,93.6841,VALID,0,VALID,23.0573,VALID,143,VALID,0,
2010-03-16, 01:52:04,VALID,1000.33,VALID,0,VALID,93.707,VALID,0,VALID,23.0964,VALID,143,VALID,0,
2010-03-16, 01:53:04,VALID,1000.34,VALID,0,VALID,93.707,VALID,0,VALID,23.1159,VALID,143,VALID,0,
2010-03-16, 01:54:04,VALID,1000.33,VALID,0,VALID,93.6841,VALID,0,VALID,23.1159,VALID,143,VALID,0,
2010-03-16, 01:55:04,VALID,1000.31,VALID,0,VALID,93.6841,VALID,0,VALID,23.0751,VALID,143,VALID,0,
2010-03-16, 01:56:04,VALID,1000.29,VALID,0,VALID,93.7375,VALID,0,VALID,23.1159,VALID,143,VALID,0,
2010-03-16, 01:57:04,VALID,1000.26,VALID,0,VALID,93.768,VALID,0,VALID,23.1549,VALID,143,VALID,0.6,
2010-03-16, 01:58:04,VALID,1000.21,VALID,0,VALID,93.7985,VALID,0,VALID,23.2134,VALID,152,VALID,0.727734,
2010-03-16, 01:59:04,VALID,1000.18,VALID,0,VALID,93.8214,VALID,0,VALID,23.2915,VALID,152,VALID,0.785156,
2010-03-16, 02:00:04,VALID,1000.17,VALID,0,VALID,93.8214,VALID,0,VALID,23.3305,VALID,152,VALID,0.593359,
2010-03-16, 02:01:04,VALID,1000.15,VALID,0,VALID,93.8214,VALID,0,VALID,23.3695,VALID,152,VALID,0.64375,
2010-03-16, 02:02:04,VALID,1000.12,VALID,0,VALID,93.8062,VALID,0,VALID,23.389,VALID,152,VALID,0.573047,
2010-03-16, 02:03:04,VALID,1000.13,VALID,0,VALID,93.7909,VALID,0,VALID,23.4085,VALID,153,VALID,0.58125,
2010-03-16, 02:04:04,VALID,1000.1,VALID,0,VALID,93.7909,VALID,0,VALID,23.3872,VALID,154,VALID,0.534766,
2010-03-16, 02:05:04,VALID,1000.07,VALID,0,VALID,93.7604,VALID,0,VALID,23.4085,VALID,154,VALID,0.435937,
2010-03-16, 02:06:04,VALID,1000.04,VALID,0,VALID,93.7451,VALID,0,VALID,23.4085,VALID,154,VALID,0.0703125,
2010-03-16, 02:07:04,VALID,1000.03,VALID,0,VALID,93.7146,VALID,0,VALID,23.389,VALID,154,VALID,0.0667969,
2010-03-16, 02:08:04,VALID,999.996,VALID,0,VALID,93.7146,VALID,0,VALID,23.3695,VALID,154,VALID,0,
2010-03-16, 02:09:04,VALID,999.968,VALID,0,VALID,93.7146,VALID,0,VALID,23.35,VALID,154,VALID,0,
2010-03-16, 02:10:04,VALID,999.984,VALID,0,VALID,93.6688,VALID,0,VALID,23.35,VALID,154,VALID,0,
2010-03-16, 02:11:04,VALID,999.943,VALID,0,VALID,93.6841,VALID,0,VALID,23.35,VALID,154,VALID,0,
2010-03-16, 02:12:04,VALID,999.941,VALID,0,VALID,93.6536,VALID,0,VALID,23.3305,VALID,154,VALID,0,
2010-03-16, 02:13:04,VALID,999.929,VALID,0,VALID,93.5773,VALID,0,VALID,23.2719,VALID,154,VALID,0,
2010-03-16, 02:14:04,VALID,999.911,VALID,0,VALID,93.5697,VALID,0,VALID,23.2329,VALID,154,VALID,0,
2010-03-16, 02:15:04,VALID,999.936,VALID,0,VALID,93.5773,VALID,0,VALID,23.1939,VALID,154,VALID,0,
2010-03-16, 02:16:04,VALID,999.916,VALID,0,VALID,93.5849,VALID,0,VALID,23.1531,VALID,154,VALID,0,
2010-03-16, 02:17:04,VALID,999.916,VALID,0,VALID,93.5773,VALID,0,VALID,23.1141,VALID,154,VALID,0,
2010-03-16, 02:18:04,VALID,999.905,VALID,0,VALID,93.5697,VALID,0,VALID,23.0946,VALID,154,VALID,0,
2010-03-16, 02:19:04,VALID,999.906,VALID,0,VALID,93.646,VALID,0,VALID,23.1354,VALID,154,VALID,0,
2010-03-16, 02:20:04,VALID,999.902,VALID,0,VALID,93.6536,VALID,0,VALID,23.1354,VALID,154,VALID,0,
2010-03-16, 02:21:04,VALID,999.891,VALID,0,VALID,93.6917,VALID,0,VALID,23.1354,VALID,154,VALID,0,
2010-03-16, 02:22:04,VALID,999.86,VALID,0,VALID,93.7604,VALID,0,VALID,23.1939,VALID,154,VALID,0.264844,
2010-03-16, 02:23:04,VALID,999.884,VALID,0,VALID,93.7299,VALID,0,VALID,23.2134,VALID,154,VALID,0.35,
2010-03-16, 02:24:04,VALID,999.834,VALID,0,VALID,93.6307,VALID,0,VALID,23.1744,VALID,115,VALID,0.743359,
2010-03-16, 02:25:04,VALID,999.838,VALID,0,VALID,93.5697,VALID,0,VALID,23.1354,VALID,102,VALID,0.768359,
2010-03-16, 02:26:04,VALID,999.832,VALID,0,VALID,93.4857,VALID,0,VALID,23.0361,VALID,95,VALID,0.960938,
2010-03-16, 02:27:04,VALID,999.802,VALID,0,VALID,93.501,VALID,0,VALID,22.9776,VALID,94,VALID,0.599219,
2010-03-16, 02:28:04,VALID,999.803,VALID,0,VALID,93.5697,VALID,0,VALID,22.9385,VALID,94,VALID,1.0457,
2010-03-16, 02:29:04,VALID,999.797,VALID,0,VALID,93.6231,VALID,0,VALID,22.9385,VALID,94,VALID,0.773047,
2010-03-16, 02:30:04,VALID,999.808,VALID,0,VALID,93.6536,VALID,0.112286,VALID,22.9581,VALID,94,VALID,0.734375,
2010-03-16, 02:31:04,VALID,999.796,VALID,0,VALID,93.6917,VALID,0,VALID,22.9971,VALID,94,VALID,0.654297,
2010-03-16, 02:32:04,VALID,999.821,VALID,0,VALID,93.6765,VALID,0,VALID,22.9776,VALID,94,VALID,0.410156,
2010-03-16, 02:33:04,VALID,999.793,VALID,0,VALID,93.6002,VALID,0,VALID,22.9385,VALID,94,VALID,0.609766,
2010-03-16, 02:34:04,VALID,999.782,VALID,0,VALID,93.5468,VALID,0,VALID,22.8818,VALID,94,VALID,0.378906,
2010-03-16, 02:35:04,VALID,999.777,VALID,0,VALID,93.6002,VALID,0,VALID,22.8623,VALID,94,VALID,0.489844,
2010-03-16, 02:36:04,VALID,999.764,VALID,0,VALID,93.6154,VALID,0,VALID,22.841,VALID,94,VALID,0.442187,
2010-03-16, 02:37:04,VALID,999.763,VALID,0,VALID,93.6994,VALID,0,VALID,22.8818,VALID,94,VALID,0.454688,
2010-03-16, 02:38:04,VALID,999.788,VALID,0,VALID,93.7375,VALID,0,VALID,22.9208,VALID,35,VALID,0.761719,
2010-03-16, 02:39:04,VALID,999.75,VALID,0,VALID,93.6154,VALID,0,VALID,22.8605,VALID,19,VALID,1.42031,
2010-03-16, 02:40:04,VALID,999.777,VALID,0,VALID,93.562,VALID,0,VALID,22.802,VALID,18,VALID,0.908203,
2010-03-16, 02:41:04,VALID,999.772,VALID,0,VALID,93.5773,VALID,0,VALID,22.7435,VALID,20,VALID,0.578906,
2010-03-16, 02:42:04,VALID,999.762,VALID,0,VALID,93.6383,VALID,0,VALID,22.7435,VALID,20,VALID,0.364453,
2010-03-16, 02:43:04,VALID,999.751,VALID,0,VALID,93.5849,VALID,0.112286,VALID,22.724,VALID,20,VALID,0.376953,
2010-03-16, 02:44:04,VALID,999.743,VALID,0,VALID,93.6078,VALID,0,VALID,22.685,VALID,20,VALID,0.44375,
2010-03-16, 02:45:04,VALID,999.724,VALID,0,VALID,93.707,VALID,0,VALID,22.7257,VALID,20,VALID,0.751172,
2010-03-16, 02:46:04,VALID,999.761,VALID,0,VALID,93.7604,VALID,0,VALID,22.7452,VALID,20,VALID,0.322656,
2010-03-16, 02:47:04,VALID,999.723,VALID,0,VALID,93.6688,VALID,0,VALID,22.7257,VALID,20,VALID,0.103906,
2010-03-16, 02:48:04,VALID,999.748,VALID,0,VALID,93.6917,VALID,0,VALID,22.7257,VALID,20,VALID,0,
2010-03-16, 02:49:04,VALID,999.756,VALID,0,VALID,93.707,VALID,0,VALID,22.7274,VALID,20,VALID,0,
2010-03-16, 02:50:04,VALID,999.76,VALID,0,VALID,93.6994,VALID,0,VALID,22.7079,VALID,20,VALID,0,
2010-03-16, 02:51:04,VALID,999.754,VALID,0,VALID,93.707,VALID,0,VALID,22.6867,VALID,20,VALID,0,
2010-03-16, 02:52:04,VALID,999.775,VALID,0,VALID,93.6917,VALID,0,VALID,22.7257,VALID,20,VALID,0,
2010-03-16, 02:53:04,VALID,999.783,VALID,0,VALID,93.7299,VALID,0,VALID,22.7452,VALID,20,VALID,0,
2010-03-16, 02:54:04,VALID,999.79,VALID,0,VALID,93.7451,VALID,0,VALID,22.8037,VALID,20,VALID,0,
2010-03-16, 02:55:04,VALID,999.806,VALID,0,VALID,93.768,VALID,0,VALID,22.8232,VALID,20,VALID,0,
2010-03-16, 02:56:04,VALID,999.772,VALID,0,VALID,93.7451,VALID,0,VALID,22.8445,VALID,20,VALID,0,
2010-03-16, 02:57:04,VALID,999.768,VALID,0,VALID,93.7451,VALID,0,VALID,22.8427,VALID,20,VALID,0,
2010-03-16, 02:58:04,VALID,999.768,VALID,0,VALID,93.7604,VALID,0,VALID,22.8623,VALID,20,VALID,0,
2010-03-16, 02:59:04,VALID,999.79,VALID,0,VALID,93.7604,VALID,0,VALID,22.8818,VALID,20,VALID,0,
2010-03-16, 03:00:04,VALID,999.776,VALID,0,VALID,93.7833,VALID,0,VALID,22.8623,VALID,20,VALID,0,
2010-03-16, 03:01:04,VALID,999.786,VALID,0,VALID,93.7528,VALID,0,VALID,22.8623,VALID,20,VALID,0,
2010-03-16, 03:02:04,VALID,999.813,VALID,0,VALID,93.7299,VALID,0,VALID,22.8818,VALID,20,VALID,0,
2010-03-16, 03:03:04,VALID,999.829,VALID,0,VALID,93.7451,VALID,0,VALID,22.8623,VALID,20,VALID,0,
2010-03-16, 03:04:04,VALID,999.809,VALID,0,VALID,93.7223,VALID,0,VALID,22.8835,VALID,20,VALID,0,
2010-03-16, 03:05:04,VALID,999.794,VALID,0,VALID,93.7146,VALID,0,VALID,22.8623,VALID,20,VALID,0,
2010-03-16, 03:06:04,VALID,999.826,VALID,0,VALID,93.7223,VALID,0,VALID,22.8623,VALID,20,VALID,0,
2010-03-16, 03:07:04,VALID,999.834,VALID,0,VALID,93.7375,VALID,0,VALID,22.8623,VALID,20,VALID,0,
2010-03-16, 03:08:04,VALID,999.813,VALID,0,VALID,93.7375,VALID,0,VALID,22.903,VALID,20,VALID,0,
2010-03-16, 03:09:04,VALID,999.844,VALID,0,VALID,93.7757,VALID,0,VALID,22.8818,VALID,20,VALID,0,
2010-03-16, 03:10:04,VALID,999.832,VALID,0,VALID,93.7604,VALID,0,VALID,22.8818,VALID,20,VALID,0,
2010-03-16, 03:11:04,VALID,999.843,VALID,0,VALID,93.7451,VALID,0,VALID,22.8818,VALID,20,VALID,0,
2010-03-16, 03:12:04,VALID,999.86,VALID,0,VALID,93.7604,VALID,0,VALID,22.903,VALID,20,VALID,0,
2010-03-16, 03:13:04,VALID,999.864,VALID,0,VALID,93.7146,VALID,0,VALID,22.8427,VALID,20,VALID,0,
2010-03-16, 03:14:04,VALID,999.854,VALID,0,VALID,93.6383,VALID,0,VALID,22.786,VALID,20,VALID,0,
2010-03-16, 03:15:04,VALID,999.878,VALID,0,VALID,93.6383,VALID,0,VALID,22.7045,VALID,20,VALID,0.728906,
2010-03-16, 03:16:04,VALID,999.858,VALID,0,VALID,93.6612,VALID,0,VALID,22.7045,VALID,20,VALID,0.675781,
2010-03-16, 03:17:04,VALID,999.876,VALID,0,VALID,93.7451,VALID,0,VALID,22.685,VALID,20,VALID,0.435937,
2010-03-16, 03:18:04,VALID,999.892,VALID,0,VALID,93.8062,VALID,0,VALID,22.724,VALID,20,VALID,0.133203,
2010-03-16, 03:19:04,VALID,999.906,VALID,0,VALID,93.8367,VALID,0,VALID,22.7435,VALID,20,VALID,0,
2010-03-16, 03:20:04,VALID,999.889,VALID,0,VALID,93.8367,VALID,0,VALID,22.763,VALID,20,VALID,0,
2010-03-16, 03:21:04,VALID,999.897,VALID,0,VALID,93.8214,VALID,0,VALID,22.7842,VALID,20,VALID,0,
2010-03-16, 03:22:04,VALID,999.895,VALID,0,VALID,93.8443,VALID,0,VALID,22.8037,VALID,20,VALID,0,
2010-03-16, 03:23:04,VALID,999.893,VALID,0,VALID,93.852,VALID,0,VALID,22.7825,VALID,20,VALID,0,
2010-03-16, 03:24:04,VALID,999.867,VALID,0,VALID,93.8825,VALID,0,VALID,22.8427,VALID,20,VALID,0,
2010-03-16, 03:25:04,VALID,999.875,VALID,0,VALID,93.8977,VALID,0,VALID,22.841,VALID,20,VALID,0,
2010-03-16, 03:26:04,VALID,999.885,VALID,0,VALID,93.852,VALID,0,VALID,22.841,VALID,20,VALID,0,
2010-03-16, 03:27:04,VALID,999.898,VALID,0,VALID,93.8214,VALID,0,VALID,22.8215,VALID,20,VALID,0,
2010-03-16, 03:28:04,VALID,999.879,VALID,0,VALID,93.7833,VALID,0.112286,VALID,22.802,VALID,20,VALID,0,
2010-03-16, 03:29:04,VALID,999.932,VALID,0,VALID,93.7757,VALID,0,VALID,22.763,VALID,20,VALID,0,
2010-03-16, 03:30:04,VALID,999.887,VALID,0,VALID,93.7833,VALID,0,VALID,22.7452,VALID,20,VALID,0,
2010-03-16, 03:31:04,VALID,999.933,VALID,0,VALID,93.7757,VALID,0,VALID,22.7257,VALID,20,VALID,0,
2010-03-16, 03:32:04,VALID,999.935,VALID,0,VALID,93.8214,VALID,0,VALID,22.7062,VALID,20,VALID,0,
2010-03-16, 03:33:04,VALID,999.939,VALID,0,VALID,93.8443,VALID,0,VALID,22.7257,VALID,20,VALID,0,
2010-03-16, 03:34:04,VALID,999.937,VALID,0,VALID,93.8977,VALID,0,VALID,22.7647,VALID,20,VALID,0,
2010-03-16, 03:35:04,VALID,999.966,VALID,0,VALID,93.9054,VALID,0,VALID,22.7842,VALID,20,VALID,0,
2010-03-16, 03:36:04,VALID,999.993,VALID,0,VALID,93.8977,VALID,0,VALID,22.8037,VALID,20,VALID,0,
2010-03-16, 03:37:04,VALID,999.997,VALID,0,VALID,93.8672,VALID,0,VALID,22.8232,VALID,20,VALID,0,
2010-03-16, 03:38:04,VALID,999.972,VALID,0,VALID,93.913,VALID,0,VALID,22.864,VALID,20,VALID,0,
2010-03-16, 03:39:04,VALID,999.986,VALID,0,VALID,93.8748,VALID,0,VALID,22.8623,VALID,20,VALID,0,
2010-03-16, 03:40:04,VALID,999.961,VALID,0,VALID,93.8977,VALID,0,VALID,22.864,VALID,20,VALID,0,
2010-03-16, 03:41:04,VALID,999.927,VALID,0,VALID,93.8901,VALID,0,VALID,22.8835,VALID,20,VALID,0,
2010-03-16, 03:42:04,VALID,999.941,VALID,0,VALID,93.8748,VALID,0,VALID,22.8623,VALID,20,VALID,0,
2010-03-16, 03:43:04,VALID,999.877,VALID,0,VALID,93.8443,VALID,0,VALID,22.8427,VALID,20,VALID,0,
2010-03-16, 03:44:04,VALID,999.884,VALID,0,VALID,93.8367,VALID,0,VALID,22.8427,VALID,20,VALID,0,
2010-03-16, 03:45:04,VALID,999.897,VALID,0,VALID,93.852,VALID,0,VALID,22.8623,VALID,20,VALID,0,
2010-03-16, 03:46:04,VALID,999.917,VALID,0,VALID,93.8291,VALID,0,VALID,22.8215,VALID,20,VALID,0,
2010-03-16, 03:47:04,VALID,999.893,VALID,0,VALID,93.7757,VALID,0.112286,VALID,22.763,VALID,20,VALID,0,
2010-03-16, 03:48:04,VALID,999.893,VALID,0,VALID,93.768,VALID,0,VALID,22.7452,VALID,20,VALID,0,
2010-03-16, 03:49:04,VALID,999.892,VALID,0,VALID,93.7528,VALID,0,VALID,22.685,VALID,20,VALID,0,
2010-03-16, 03:50:04,VALID,999.898,VALID,0,VALID,93.7223,VALID,0,VALID,22.685,VALID,20,VALID,0,
2010-03-16, 03:51:04,VALID,999.87,VALID,0,VALID,93.8214,VALID,0.112286,VALID,22.6867,VALID,20,VALID,0,
2010-03-16, 03:52:04,VALID,999.864,VALID,0,VALID,93.8901,VALID,0,VALID,22.724,VALID,105,VALID,0,
2010-03-16, 03:53:04,VALID,999.873,VALID,0,VALID,93.852,VALID,0,VALID,22.724,VALID,112,VALID,0,
2010-03-16, 03:54:04,VALID,999.832,VALID,0,VALID,93.8672,VALID,0,VALID,22.724,VALID,124,VALID,0,
2010-03-16, 03:55:04,VALID,999.833,VALID,0,VALID,93.8977,VALID,0.112286,VALID,22.763,VALID,124,VALID,0,